Powrót do katalogu

ANIK E2

AktywnyŁącznośćGEO
NORAD 21222·PAYLOAD·🇨🇦 Canada

Wystrzelony Apr 4, 1991 z Guiana Space Centre

Loading…

TLE

ŚwieżeSource: Space-Track

Epoka: Sep 14, 2026, 05:07 UTC

1 21222U 91026A   26257.21326947 -.00000205  00000-0  00000-0 0  9991
2 21222  14.1453  11.7184 0003753  46.2812 311.3831  0.99129703117944

Śledź ANIK E2 w czasie rzeczywistym z AllMySat

Download on the App Store